Torna al catalogo

SL-16 DEB

LostLEO
NORAD 39884·DEBRIS·🇷🇺 Russia

Lanciato Mar 26, 1993 da Baikonur Cosmodrome

Loading…

Prossimi Passaggi (prossime 24 ore)

TLE

ObsoletoSource: Space-Track

Epoca: Nov 14, 2022, 22:04 UTC

1 39884U 93016BJ  22318.91971825  .00005330  00000-0  20520-2 0  9991
2 39884  70.9592 163.9887 0119094 355.9234   4.0911 14.26907657923885

Traccia SL-16 DEB in tempo reale con AllMySat

Download on the App Store